Location: Potomac
(46.8816°N, 113.5795°W)
Time: 05:27:47
(UTC+00:00)

Oscar 19 - Pass Details

Date: 04 July 2022
Orbit: 773 x 790 km, 98.8° (Epoch: 12 August)

Event Time Altitude Azimuth Distance (km) Brightness Sun altitude
Rises 10:29:48 0° 22° (NNE) 3,262 15.5 -10.3°
Reaches altitude 10° 10:32:19 10° 31° (NNE) 2,329 14.7 -10.0°
Maximum altitude 10:37:00 35° 97° (E) 1,231 12.0 -9.5°
Drops below altitude 10° 10:41:39 10° 163° (SSE) 2,315 12.8 -9.0°
Sets 10:44:08 0° 172° (S) 3,238 13.5 -8.7°
